EPGD Weather Reports


time (UTC)temp
C
wind
direction
speed
KPH
gust
KPH
rain 1hr
cm
rain 24hr
cm
rain mn
cm
humidity
%
barometer
mb
20260905223504 12 260 20.9 0.0 0.00 0.00 0.00 87 1011.0
20260905220504 12 260 24.1 0.0 0.00 0.00 0.00 87 1011.0
20260905213504 12 260 20.9 0.0 0.00 0.00 0.00 93 1010.0
20260905210503 12 260 24.1 0.0 0.00 0.00 0.00 93 1010.0
20260905203503 12 260 20.9 0.0 0.00 0.00 0.00 93 1010.0
20260905200504 12 260 24.1 0.0 0.00 0.00 0.00 93 1010.0
20260905193504 12 260 19.3 0.0 0.00 0.00 0.00 93 1010.0
20260905190504 12 260 22.5 0.0 0.00 0.00 0.00 93 1010.0
20260905183503 12 260 24.1 0.0 0.00 0.00 0.00 87 1010.0
20260905180504 12 260 25.7 0.0 0.00 0.00 0.00 87 1010.0
20260905173504 12 250 22.5 0.0 0.00 0.00 0.00 87 1010.0
20260905170504 13 260 27.4 0.0 0.00 0.00 0.00 76 1009.0
20260905163503 13 260 29.0 0.0 0.00 0.00 0.00 76 1009.0
20260905160504 15 260 29.0 0.0 0.00 0.00 0.00 76 1009.0
20260905153503 15 260 25.7 0.0 0.00 0.00 0.00 72 1009.0
20260905150503 13 250 24.1 0.0 0.00 0.00 0.00 82 1009.0
20260905143503 13 250 25.7 0.0 0.00 0.00 0.00 82 1009.0
20260905140504 13 260 24.1 0.0 0.00 0.00 0.00 82 1009.0
20260905133503 15 270 35.4 0.0 0.00 0.00 0.00 76 1009.0
20260905130504 15 270 35.4 0.0 0.00 0.00 0.00 72 1009.0
20260905123503 15 270 35.4 0.0 0.00 0.00 0.00 72 1009.0
20260905120504 15 260 35.4 0.0 0.00 0.00 0.00 77 1008.0
20260905113503 15 270 35.4 0.0 0.00 0.00 0.00 82 1008.0
20260905110504 15 270 25.7 0.0 0.00 0.00 0.00 82 1008.0
20260905103504 15 280 29.0 0.0 0.00 0.00 0.00 87 1008.0
20260905100504 15 270 27.4 0.0 0.00 0.00 0.00 82 1007.0
20260905093504 15 280 45.1 0.0 0.00 0.00 0.00 77 1007.0
20260905090504 15 270 38.6 0.0 0.00 0.00 0.00 72 1006.0
20260905083504 15 280 37.0 0.0 0.00 0.00 0.00 72 1006.0
20260905080504 15 280 38.6 0.0 0.00 0.00 0.00 77 1006.0
20260905073504 13 270 37.0 0.0 0.00 0.00 0.00 87 1005.0
20260905070504 13 270 27.4 0.0 0.00 0.00 0.00 87 1005.0
20260905063504 13 260 37.0 0.0 0.00 0.00 0.00 87 1005.0
20260905060503 13 250 32.2 0.0 0.00 0.00 0.00 87 1004.0
20260905053504 13 250 32.2 0.0 0.00 0.00 0.00 87 1004.0
20260905050504 13 260 32.2 0.0 0.00 0.00 0.00 87 1004.0
20260905043504 13 250 24.1 0.0 0.00 0.00 0.00 87 1003.0
20260905040504 13 260 29.0 0.0 0.00 0.00 0.00 87 1003.0
20260905033504 13 260 32.2 0.0 0.00 0.00 0.00 87 1003.0
20260905030504 13 270 32.2 0.0 0.00 0.00 0.00 87 1002.0
20260905023504 13 270 35.4 0.0 0.00 0.00 0.00 87 1002.0
20260905020504 13 270 40.2 0.0 0.00 0.00 0.00 87 1002.0
20260905013503 13 270 38.6 0.0 0.00 0.00 0.00 87 1001.0
20260905010504 15 270 40.2 0.0 0.00 0.00 0.00 87 1001.0
20260905003503 15 270 40.2 0.0 0.00 0.00 0.00 93 1001.0
20260905000503 15 270 40.2 0.0 0.00 0.00 0.00 87 1000.0
20260904233504 15 260 33.8 0.0 0.00 0.00 0.00 87 1000.0
20260904230503 15 250 19.3 0.0 0.00 0.00 0.00 93 1000.0